User: anonymous   Login
Location: Solon
(41.3849°N, 81.4081°W)
Time: 06:44:34
(UTC-04:00)
Language:

CZ-2C R/B - Orbit

View from above orbital plane
View from above orbital plane
View from above satellite
View from above satellite

Ground track
Ground track

The orbit data is extracted from the following two-line orbital elements,

1 28480U 04046B   17142.91491791 +.00000008 +00000-0 +19317-4 0  9995
2 28480 098.1944 240.7335 0140890 299.4058 168.4325 14.25636614650617
Epoch (UTC): 22 May 2017 21:57:28
Eccentricity: 0.0140890
inclination: 98.1944°
perigee height: 705 km
apogee height: 907 km
right ascension of ascending node: 240.7335°
argument of perigee: 299.4058°
revolutions per day: 14.25636614
mean anomaly at epoch: 168.4325°
orbit number at epoch: 65061

The dashed part of the orbit path shows where the satellite is in the earth's shadow,  

DLR